{"data":{"norad_id":53225,"epoch":"2026-09-19T10:34:19.894656Z","epoch_age_seconds":163796,"freshness":"FRESH","line1":"1 53225U 22084AN  26262.44050804  .00000617  00000+0  21441-4 0  9995","line2":"2 53225  97.2847 318.2023 0001520  90.0737 270.0680 15.33438899228591","mean_motion":15.33438899,"eccentricity":0.000152,"inclination_deg":97.2847,"raan_deg":318.2023,"arg_perigee_deg":90.0737,"mean_anomaly_deg":270.068,"bstar":2.1441e-5,"rev_number":22859,"period_min":93.906578275735,"perigee_km":464.52108467622,"apogee_km":466.60156896757,"semimajor_km":6843.6983268219,"source":"CELESTRAK","updated_at":"2026-09-20T09:00:40.195291Z"}}